DECAYED
Showing default

LUCKY-7, 44406 (Decayed)

Orbit data source: Space-Track

LUCKY-7, 44406 was a payload satellite owned by SkyFox Labs (CZ) in LEO that was launched on Fri, 05 Jul 2019 UTC via a SOYUZ-2-1B launch vehicle from the Vostochny Cosmodrome (VOSTO). Payload-class satellites include a variety of spacecraft equipped with specific instruments for various scientific and technological missions. These include communications satellites like Starlink; space stations such as the ISS; scientific satellites like the Hubble; Earth observation satellites from companies like Planet Labs, Umbra, and HawkEye 360; GPS; miniature CubeSats for education and research; and military/defense satellites.

Not visible in the next 10 days
Identifier
44406, 2019-038W
Orbit
Decayed
Last TLE update
7 months ago
Origin
Flag of CZSkyFox Labs s.r.o. (CZ / CZE)
Manufacturer
SkyFox Labs
Mission
Decayed Commercial Technology
Bus & Motor
CUBESAT 1U, Unknown motor
Mass
1 kg wet, 1 kg dry
Launch date (UTC)
2019-07-05 (6 years ago)
Launch vehicle
SOYUZ-2-1B
Launch site
Vostochny Cosmodrome (VOSTO)
Object type
Payload
Rocket body
Debris
Shape & HBR
Box, Unknown HBR
Radar Cross Section
0.015 m², Small (<0.1 m²)

Expand to show TLE details & history

TLE from 7 months ago
0 LUCKY-7
1 44406U 19038W   24351.70569410  .16446325  26410-5  18169-3 0  9993
2 44406  97.6679   6.0836 0010327 352.1981   7.9160 16.50065787302877
Epoch: 2024-12-16T16:56Z
TLE epoch observation values (Epoch: 2024-12-16T16:56:11.97Z)
Latitude
-0.00006°
Longitude
26.20896°
Altitude
135.751 km
Speed
7.829 km/s
True Right ascension
00h 24m 20s
True Declination
0° 00' 00"
Sunlit
Object was in daylight at epoch
Visualization orbit readout
Visualization observer readout
Orbital elements
Apogee altitude
142.696 km
Perigee altitude
129.242 km
Semi-major axis
6,514.106 km
Eccentricity
0.00103
Inclination
97.6679°
RAAN
6.0836°
Arg. of periapsis
352.1981°
True anomaly
Unknown
Mean anomaly
7.916°
Eccentric anomaly
Unknown
Mean motion
4.1282 °/min
Orbital period
87.21 mins
BSTAR
0.00018169
Loading maneuver chart data...
Loading SW <> Apogee altitude chart data...

LUCKY-7 Visibility

Observer location: undefined°, undefined°

This satellite is decayed
Span
Click to sort rows by Start time (UTC) header in descending order
Start Az.
Max El. time (UTC)
Max El. Az.
Max El.
End time (UTC)
End Az.
|